This is the latest recevied weather packets stored in our database for station/object I2HLY-4. If no packets are shown the sender has not sent any weather packets the latest 10 day(s).
| Time | Temp. | Humidity | Pressure | Rain* | Wind** | Luminosity | Snow |
|---|---|---|---|---|---|---|---|
| 1777560448 | 11.11° C | 71% | 1024.3 hPa | 0 mm | - | - | - |
| 1777559540 | 11.11° C | 72% | 1024.3 hPa | 0 mm | - | - | - |
| 1777558654 | 10.56° C | 72% | 1024.3 hPa | 0 mm | - | - | - |
| 1777557744 | 10.56° C | 71% | 1024.4 hPa | 0 mm | - | - | - |
| 1777556839 | 11.11° C | 71% | 1024.6 hPa | 0 mm | - | - | - |
| 1777555933 | 11.11° C | 71% | 1024.6 hPa | 0 mm | - | - | - |
| 1777555050 | 10.56° C | 71% | 1024.7 hPa | 0 mm | - | - | - |
| 1777554142 | 10.56° C | 71% | 1024.7 hPa | 0 mm | - | - | - |
| 1777553234 | 10.56° C | 73% | 1024.9 hPa | 0 mm | - | - | - |
| 1777552333 | 10° C | 74% | 1024.9 hPa | 0 mm | - | - | - |
| 1777551446 | 10° C | 74% | 1025 hPa | 0 mm | - | - | - |
| 1777550543 | 9.44° C | 74% | 1025.3 hPa | 0 mm | - | - | - |
| 1777549637 | 9.44° C | 73% | 1025.2 hPa | 0 mm | - | - | - |
| 1777548733 | 8.89° C | 75% | 1025.3 hPa | 0 mm | - | - | - |
| 1777547850 | 8.33° C | 77% | 1025.4 hPa | 0 mm | - | - | - |
| 1777546945 | 7.78° C | 78% | 1025.4 hPa | 0 mm | - | - | - |
| 1777546038 | 7.78° C | 79% | 1025.5 hPa | 0 mm | - | - | - |
| 1777545137 | 7.22° C | 86% | 1025.4 hPa | 0 mm | - | - | - |
| 1777544250 | 7.22° C | 87% | 1025.4 hPa | 0 mm | - | - | - |
| 1777543343 | 6.67° C | 89% | 1025.3 hPa | 0 mm | - | - | - |
| 1777542441 | 6.11° C | 91% | 1025.2 hPa | 0 mm | - | - | - |
| 1777541534 | 6.11° C | 92% | 1025.2 hPa | 0 mm | - | - | - |
| 1777540633 | 6.67° C | 94% | 1025.1 hPa | 0 mm | - | - | - |
| 1777539745 | 6.67° C | 96% | 1025 hPa | 0 mm | - | - | - |
| 1777538841 | 7.22° C | 95% | 1024.8 hPa | 0 mm | - | - | - |
* Rain latest hour (hover to see other rain measurements)
** Current wind speed in m/s (hover to see current wind gust speed)